QPF
0.03 0.03 0.01 0.00 0.00 0.00 0.00 0.00 0.00 0.00 0.00 0.00 0.00 0.00 0.00 0.00 0.00 0.00 0.00 0.00 0.00 0.00 0.00 0.00 0.00 0.00 0.00 0.00 0.00 0.00 0.00 0.00 0.00 0.02 0.03 0.02 0.01 0.00 0.00 0.00 0.00 0.00 0.00
0.06 0.06 0.05 0.01 0.00 0.00 0.00 0.00 0.00 0.00 0.00 0.00 0.00 0.00 0.00 0.00 0.00 0.00 0.00 0.00 0.00 0.00 0.00 0.00 0.00 0.00 0.00 0.00 0.00 0.00 0.00 0.00 0.00 0.00 0.00 0.01 0.02 0.02 0.02 0.04 0.03 0.02 0.02
0.01 0.02 0.04 0.04 0.01 0.00 0.00 0.00 0.00 0.00 0.00 0.00 0.00 0.00 0.00 0.00 0.00 0.00 0.00 0.00 0.00 0.00 0.00 0.00 0.00 0.00 0.00 0.00 0.00 0.00 0.00 0.00 0.00 0.00 0.00 0.00 0.00 0.00 0.00 0.00 0.00 0.00 0.02
0.00 0.00 0.01 0.04 0.05 0.04 0.03 0.01 0.00 0.00 0.00 0.00 0.00 0.00 0.00 0.00 0.00 0.00 0.00 0.00 0.00 0.00 0.00 0.00 0.00 0.00 0.00 0.00 0.00 0.00 0.00 0.00 0.00 0.00 0.00 0.00 0.00 0.00 0.00 0.00 0.00 0.00 0.00
0.00 0.00 0.00 0.01 0.02 0.03 0.03 0.03 0.01 0.00 0.00 0.00 0.00 0.00 0.00 0.00 0.00 0.00 0.00 0.00 0.00 0.00 0.00 0.00 0.00 0.00 0.00 0.00 0.00 0.00 0.00 0.00 0.00 0.00 0.00 0.00 0.00 0.00 0.00 0.00 0.00 0.00 0.00
0.00 0.00 0.00 0.00 0.00 0.00 0.02 0.03 0.03 0.02 0.00 0.00 0.00 0.00 0.00 0.00 0.00 0.00 0.00 0.00 0.00 0.00 0.00 0.00 0.00 0.00 0.00 0.00 0.00 0.00 0.00 0.00 0.00 0.00 0.00 0.00 0.00 0.00 0.00 0.00 0.00 0.00 0.00
0.00 0.00 0.00 0.00 0.00 0.00 0.00 0.00 0.02 0.03 0.02 0.01 0.00 0.00 0.00 0.00 0.00 0.00 0.00 0.00 0.00 0.00 0.00 0.00 0.00 0.00 0.00 0.00 0.00 0.00 0.00 0.00 0.00 0.00 0.00 0.00 0.00 0.00 0.00 0.00 0.00 0.00 0.00
0.00 0.00 0.00 0.00 0.00 0.00 0.00 0.00 0.00 0.01 0.02 0.02 0.01 0.00 0.00 0.00 0.00 0.00 0.00 0.00 0.00 0.00 0.00 0.00 0.00 0.00 0.00 0.00 0.00 0.00 0.00 0.00 0.00 0.00 0.00 0.00 0.00 0.00 0.00 0.00 0.00 0.00 0.00
0.00 0.00 0.00 0.00 0.00 0.00 0.00 0.00 0.00 0.00 0.00 0.01 0.01 0.02 0.01 0.00 0.00 0.00 0.00 0.00 0.00 0.00 0.00 0.00 0.00 0.00 0.00 0.00 0.00 0.00 0.00 0.00 0.00 0.00 0.00 0.00 0.00 0.00 0.00 0.00 0.00 0.00 0.00
0.00 0.00 0.00 0.00 0.00 0.00 0.00 0.00 0.00 0.00 0.00 0.00 0.00 0.02 0.03 0.02 0.01 0.01 0.00 0.00 0.00 0.00 0.00 0.00 0.00 0.00 0.00 0.00 0.00 0.00 0.00 0.00 0.00 0.00 0.00 0.00 0.00 0.00 0.00 0.00 0.00 0.00 0.00
0.00 0.00 0.00 0.00 0.00 0.00 0.00 0.00 0.00 0.00 0.00 0.00 0.00 0.00 0.01 0.02 0.03 0.01 0.01 0.00 0.00 0.00 0.00 0.00 0.00 0.00 0.00 0.00 0.00 0.00 0.00 0.00 0.00 0.00 0.00 0.00 0.00 0.00 0.00 0.00 0.00 0.00 0.00
0.00 0.00 0.00 0.00 0.00 0.00 0.00 0.00 0.00 0.00 0.00 0.00 0.00 0.00 0.00 0.00 0.01 0.02 0.03 0.02 0.01 0.00 0.00 0.00 0.00 0.00 0.00 0.00 0.00 0.00 0.00 0.00 0.00 0.00 0.00 0.00 0.00 0.00 0.00 0.00 0.00 0.00 0.00
0.00 0.00 0.00 0.00 0.00 0.00 0.00 0.00 0.00 0.00 0.00 0.00 0.00 0.00 0.00 0.00 0.00 0.00 0.01 0.02 0.02 0.01 0.00 0.00 0.00 0.00 0.00 0.00 0.00 0.00 0.00 0.00 0.00 0.00 0.00 0.00 0.00 0.00 0.00 0.00 0.00 0.00 0.00
0.00 0.00 0.00 0.00 0.00 0.00 0.00 0.00 0.00 0.00 0.00 0.00 0.00 0.00 0.00 0.00 0.00 0.00 0.00 0.00 0.01 0.01 0.00 0.00 0.00 0.00 0.00 0.00 0.00 0.00 0.00 0.00 0.00 0.00 0.00 0.00 0.00 0.00 0.00 0.00 0.00 0.00 0.00
0.00 0.00 0.00 0.00 0.00 0.00 0.00 0.00 0.00 0.00 0.00 0.00 0.00 0.00 0.00 0.00 0.00 0.00 0.00 0.00 0.00 0.00 0.00 0.00 0.00 0.00 0.00 0.00 0.00 0.00 0.00 0.00 0.00 0.00 0.00 0.00 0.00 0.00 0.00 0.00 0.00 0.00 0.00
0.00 0.00 0.00 0.00 0.00 0.00 0.00 0.00 0.00 0.00 0.00 0.00 0.00 0.00 0.00 0.00 0.00 0.00 0.00 0.00 0.00 0.00 0.00 0.00 0.00 0.00 0.00 0.00 0.00 0.00 0.00 0.00 0.00 0.00 0.00 0.00 0.00 0.00 0.00 0.00 0.00 0.00 0.00
0.00 0.00 0.00 0.00 0.00 0.00 0.00 0.00 0.00 0.00 0.00 0.00 0.00 0.00 0.00 0.00 0.00 0.00 0.00 0.00 0.00 0.00 0.00 0.00 0.00 0.00 0.00 0.00 0.00 0.00 0.00 0.00 0.00 0.00 0.00 0.00 0.00 0.00 0.00 0.00 0.00 0.00 0.00
0.00 0.00 0.00 0.00 0.00 0.00 0.00 0.00 0.00 0.00 0.00 0.00 0.00 0.00 0.00 0.00 0.00 0.00 0.00 0.00 0.00 0.00 0.00 0.00 0.00 0.00 0.00 0.00 0.00 0.00 0.00 0.00 0.00 0.00 0.00 0.00 0.00 0.00 0.00 0.00 0.00 0.00 0.00
0.00 0.00 0.00 0.00 0.00 0.00 0.00 0.00 0.00 0.00 0.00 0.00 0.00 0.00 0.00 0.00 0.00 0.00 0.00 0.00 0.00 0.00 0.00 0.00 0.00 0.00 0.00 0.00 0.00 0.00 0.00 0.00 0.00 0.00 0.00 0.00 0.00 0.00 0.00 0.00 0.00 0.00 0.00
0.00 0.00 0.00 0.00 0.00 0.00 0.00 0.00 0.00 0.00 0.00 0.00 0.00 0.00 0.00 0.00 0.00 0.00 0.00 0.00 0.00 0.01 0.01 0.00 0.00 0.00 0.00 0.00 0.00 0.00 0.00 0.00 0.00 0.00 0.00 0.00 0.00 0.00 0.00 0.00 0.00 0.00 0.00
0.00 0.00 0.00 0.00 0.00 0.00 0.00 0.00 0.00 0.00 0.00 0.00 0.00 0.00 0.00 0.00 0.00 0.00 0.00 0.00 0.00 0.00 0.01 0.00 0.00 0.00 0.00 0.00 0.00 0.00 0.00 0.00 0.00 0.00 0.00 0.00 0.00 0.00 0.00 0.00 0.00 0.00 0.00
0.00 0.00 0.00 0.00 0.00 0.00 0.00 0.01 0.02 0.01 0.01 0.01 0.01 0.00 0.00 0.00 0.00 0.00 0.00 0.00 0.00 0.00 0.01 0.01 0.00 0.00 0.00 0.00 0.00 0.00 0.00 0.00 0.00 0.00 0.00 0.00 0.00 0.00 0.00 0.00 0.00 0.00 0.00
0.00 0.00 0.00 0.00 0.00 0.01 0.01 0.03 0.04 0.05 0.03 0.02 0.01 0.00 0.00 0.00 0.00 0.00 0.00 0.00 0.00 0.00 0.01 0.01 0.00 0.00 0.00 0.00 0.00 0.00 0.00 0.00 0.00 0.00 0.00 0.00 0.00 0.00 0.00 0.00 0.00 0.00 0.00
0.01 0.01 0.01 0.01 0.01 0.01 0.03 0.04 0.05 0.07 0.06 0.04 0.02 0.01 0.00 0.00 0.00 0.00 0.00 0.00 0.00 0.00 0.01 0.01 0.01 0.01 0.00 0.00 0.00 0.00 0.00 0.00 0.00 0.00 0.00 0.00 0.00 0.00 0.00 0.00 0.00 0.00 0.00
0.01 0.01 0.01 0.01 0.02 0.01 0.02 0.04 0.05 0.06 0.07 0.05 0.03 0.01 0.00 0.00 0.00 0.00 0.00 0.00 0.00 0.00 0.00 0.02 0.02 0.01 0.01 0.00 0.00 0.00 0.00 0.00 0.00 0.00 0.00 0.00 0.00 0.00 0.00 0.00 0.00 0.00 0.00
0.01 0.01 0.01 0.01 0.02 0.02 0.02 0.03 0.04 0.05 0.05 0.04 0.03 0.01 0.00 0.00 0.00 0.00 0.00 0.00 0.00 0.00 0.00 0.01 0.03 0.03 0.01 0.00 0.00 0.00 0.00 0.00 0.00 0.00 0.00 0.00 0.00 0.00 0.00 0.00 0.00 0.00 0.00
MSLP
1014.72 1014.06 1013.29 1013.38 1013.60 1013.76 1013.77 1013.67 1013.56 1013.53 1013.57 1013.54 1013.33 1013.19 1013.05 1012.90 1013.03 1013.18 1013.47 1014.62 1014.93 1015.18 1015.21 1015.37 1015.49 1015.53 1015.70 1015.78 1016.00 1016.12 1016.18 1016.29 1016.44 1016.48 1016.59 1016.88 1017.10 1017.34 1017.58 1017.79 1018.01 1018.23 1018.42
1015.54 1015.21 1014.67 1014.10 1013.45 1013.52 1013.54 1013.55 1013.41 1013.27 1013.21 1013.08 1013.06 1013.08 1012.95 1012.75 1012.76 1013.01 1013.28 1014.18 1014.69 1015.03 1015.09 1015.12 1015.33 1015.44 1015.59 1015.74 1015.93 1016.12 1016.23 1016.41 1016.53 1016.70 1016.82 1017.01 1017.05 1017.17 1017.35 1017.58 1017.90 1018.07 1018.20
1015.72 1015.66 1015.48 1015.29 1014.71 1014.26 1013.63 1013.25 1013.19 1013.14 1012.95 1012.91 1012.82 1012.74 1012.76 1012.75 1012.60 1012.76 1013.07 1013.44 1014.07 1014.67 1014.87 1014.92 1015.03 1015.19 1015.35 1015.52 1015.89 1016.03 1016.15 1016.42 1016.62 1016.78 1016.98 1017.18 1017.30 1017.34 1017.42 1017.65 1017.85 1017.89 1017.77
1015.25 1014.93 1015.09 1015.15 1015.17 1015.16 1014.98 1014.48 1013.86 1013.40 1013.23 1012.94 1012.67 1012.56 1012.35 1012.34 1012.50 1012.41 1012.64 1013.01 1013.35 1013.51 1014.34 1014.66 1014.79 1014.94 1015.03 1015.15 1015.56 1015.93 1016.10 1016.28 1016.59 1016.82 1016.99 1017.16 1017.34 1017.53 1017.53 1017.67 1017.85 1017.93 1018.00
1015.41 1015.17 1014.77 1014.36 1014.34 1014.85 1015.03 1014.80 1014.17 1013.71 1013.22 1012.74 1012.57 1012.21 1011.87 1011.92 1012.00 1012.01 1012.09 1012.48 1012.98 1013.29 1013.51 1014.02 1014.46 1014.72 1014.83 1014.91 1015.14 1015.52 1015.91 1016.16 1016.39 1016.70 1016.94 1017.17 1017.36 1017.52 1017.61 1017.69 1017.84 1017.96 1018.05
1015.51 1015.40 1015.10 1014.58 1014.29 1014.17 1014.44 1014.66 1014.57 1014.16 1013.33 1012.81 1012.33 1011.66 1011.56 1011.38 1011.56 1011.60 1011.57 1011.61 1012.17 1012.81 1013.22 1013.31 1014.08 1014.38 1014.62 1014.67 1014.83 1015.08 1015.45 1015.82 1016.16 1016.46 1016.74 1017.06 1017.26 1017.43 1017.57 1017.74 1017.88 1018.02 1018.07
1015.47 1015.35 1015.10 1014.71 1014.36 1014.14 1013.97 1014.03 1014.09 1014.13 1013.88 1013.06 1012.58 1011.92 1011.27 1010.90 1010.64 1010.95 1011.12 1011.12 1011.29 1011.78 1012.49 1012.87 1013.13 1013.64 1013.96 1014.33 1014.52 1014.69 1014.94 1015.35 1015.73 1016.13 1016.44 1016.75 1017.03 1017.28 1017.49 1017.67 1017.89 1018.00 1018.10
1015.50 1015.24 1014.86 1014.59 1014.33 1014.00 1013.81 1013.66 1013.57 1013.67 1013.74 1013.74 1013.26 1012.51 1011.59 1010.66 1010.04 1009.79 1010.24 1010.48 1010.62 1010.92 1011.49 1011.95 1012.36 1012.71 1012.94 1013.56 1014.03 1014.32 1014.58 1014.77 1015.23 1015.63 1016.06 1016.40 1016.67 1016.98 1017.27 1017.53 1017.77 1017.97 1018.08
1015.35 1014.94 1014.52 1014.26 1014.00 1013.85 1013.58 1013.39 1013.26 1013.19 1013.13 1013.45 1013.73 1013.65 1012.75 1011.16 1009.88 1009.16 1009.23 1009.57 1010.00 1010.18 1010.61 1011.04 1011.44 1011.85 1012.23 1012.57 1013.17 1013.79 1014.23 1014.52 1014.63 1015.01 1015.55 1015.97 1016.30 1016.54 1016.87 1017.22 1017.53 1017.79 1017.97
1014.77 1014.50 1014.22 1013.87 1013.70 1013.54 1013.28 1013.07 1012.84 1012.54 1012.44 1012.37 1012.89 1013.39 1013.23 1012.92 1012.37 1010.40 1009.12 1009.21 1008.97 1009.74 1009.95 1010.20 1010.55 1010.99 1011.41 1011.80 1012.27 1012.93 1013.63 1014.16 1014.44 1014.55 1014.83 1015.23 1015.71 1016.12 1016.41 1016.77 1017.16 1017.48 1017.75
1014.06 1013.85 1013.63 1013.42 1013.25 1013.13 1012.92 1012.79 1012.63 1012.40 1012.09 1011.91 1011.74 1012.12 1012.72 1012.84 1012.96 1013.13 1012.09 1010.56 1009.32 1009.29 1009.55 1009.53 1009.91 1010.28 1010.63 1011.02 1011.50 1012.12 1012.89 1013.63 1014.11 1014.42 1014.65 1014.88 1015.21 1015.56 1015.97 1016.27 1016.68 1017.05 1017.45
1013.50 1013.31 1013.08 1012.82 1012.73 1012.66 1012.58 1012.47 1012.26 1012.05 1011.72 1011.36 1011.23 1011.07 1011.35 1011.73 1012.13 1012.34 1012.39 1011.09 1010.82 1009.14 1009.11 1008.88 1009.38 1009.74 1010.00 1010.42 1010.83 1011.28 1012.10 1013.02 1013.63 1014.07 1014.42 1014.62 1014.92 1015.18 1015.54 1015.90 1016.19 1016.59 1017.02
1013.15 1012.84 1012.65 1012.28 1012.09 1011.96 1011.89 1011.95 1011.92 1011.54 1011.41 1010.98 1010.70 1010.53 1010.29 1010.26 1010.68 1011.18 1011.33 1011.23 1011.11 1010.25 1009.90 1008.79 1008.72 1009.13 1009.55 1009.84 1010.23 1010.76 1011.33 1012.12 1013.07 1013.64 1014.06 1014.34 1014.59 1014.86 1015.24 1015.58 1015.89 1016.20 1016.54
1012.69 1012.57 1012.32 1011.99 1011.74 1011.52 1011.30 1011.18 1010.95 1010.71 1010.52 1010.38 1010.07 1009.92 1009.73 1009.59 1009.52 1009.89 1010.43 1010.73 1010.59 1010.63 1010.27 1008.38 1007.82 1008.33 1008.76 1009.27 1009.68 1010.14 1010.87 1011.40 1012.19 1013.03 1013.55 1013.95 1014.26 1014.57 1014.92 1015.29 1015.63 1015.93 1016.22
1012.35 1012.00 1011.68 1011.28 1011.09 1010.93 1010.85 1010.69 1010.12 1009.73 1009.67 1009.42 1009.09 1008.93 1009.00 1008.96 1009.00 1008.86 1009.12 1009.79 1009.94 1009.70 1009.07 1007.98 1007.62 1007.61 1008.00 1008.68 1009.16 1009.76 1010.19 1010.89 1011.45 1012.17 1012.93 1013.43 1013.86 1014.23 1014.58 1014.96 1015.30 1015.63 1015.94
1011.89 1011.43 1010.94 1010.75 1010.56 1010.26 1010.20 1009.95 1009.30 1008.85 1008.86 1008.64 1008.35 1007.90 1007.90 1007.99 1008.11 1008.09 1008.08 1008.40 1009.02 1009.21 1008.62 1007.98 1007.75 1006.95 1007.19 1007.85 1008.37 1009.15 1009.63 1010.19 1010.93 1011.49 1012.15 1012.86 1013.39 1013.82 1014.21 1014.56 1014.90 1015.25 1015.63
1011.47 1010.88 1010.37 1010.05 1009.67 1009.29 1009.13 1008.87 1008.11 1007.78 1007.67 1007.62 1007.49 1007.27 1007.19 1007.34 1007.47 1007.59 1007.58 1007.49 1007.73 1008.28 1008.29 1007.91 1007.79 1007.70 1007.21 1007.69 1007.97 1008.54 1009.21 1009.90 1010.45 1010.98 1011.51 1012.17 1012.88 1013.40 1013.83 1014.15 1014.52 1014.93 1015.33
1011.23 1010.56 1009.92 1009.28 1008.74 1008.30 1008.10 1007.82 1007.18 1006.82 1006.66 1006.59 1006.61 1006.60 1006.42 1006.61 1006.89 1007.01 1007.22 1007.17 1006.97 1007.45 1007.78 1008.19 1007.96 1007.64 1007.45 1007.93 1007.64 1008.25 1008.88 1009.10 1009.65 1010.47 1011.01 1011.58 1012.27 1012.90 1013.40 1013.83 1014.18 1014.54 1014.95
1010.99 1010.37 1009.76 1008.97 1008.26 1007.78 1007.35 1006.97 1006.60 1006.30 1006.01 1005.89 1005.73 1005.71 1005.67 1005.88 1006.04 1006.22 1006.53 1006.71 1006.65 1006.70 1007.02 1007.70 1007.87 1007.83 1007.99 1007.80 1007.45 1007.80 1008.52 1008.98 1009.12 1009.66 1010.41 1011.04 1011.71 1012.40 1012.94 1013.43 1013.81 1014.15 1014.51
1010.68 1010.02 1009.27 1008.51 1007.82 1007.15 1006.78 1006.44 1006.15 1006.30 1005.73 1005.29 1005.41 1005.08 1005.14 1005.23 1005.33 1005.51 1005.94 1006.11 1006.25 1006.22 1006.73 1007.32 1007.78 1008.02 1008.02 1007.87 1007.41 1007.62 1008.03 1008.58 1009.02 1009.12 1009.90 1010.47 1011.13 1011.77 1012.34 1012.89 1013.31 1013.67 1014.04
1009.98 1009.40 1008.60 1007.81 1007.17 1006.59 1005.98 1005.72 1005.40 1005.45 1005.75 1005.41 1004.74 1004.39 1004.34 1004.64 1004.53 1004.90 1005.38 1005.72 1005.87 1005.92 1006.09 1006.81 1007.43 1007.85 1007.70 1007.62 1007.27 1007.48 1007.60 1008.23 1008.67 1008.86 1009.38 1010.02 1010.55 1011.11 1011.61 1012.09 1012.53 1013.02 1013.36
1009.11 1008.40 1007.65 1006.80 1006.28 1005.82 1005.33 1005.08 1004.93 1004.78 1004.88 1004.64 1004.69 1004.81 1003.75 1003.68 1004.11 1004.66 1005.20 1005.66 1005.90 1005.95 1005.93 1006.14 1006.73 1007.38 1007.22 1007.30 1007.15 1007.30 1007.69 1007.94 1008.30 1008.23 1008.87 1009.36 1009.74 1010.22 1010.61 1011.05 1011.35 1012.00 1012.36
1008.11 1007.18 1006.61 1006.15 1005.38 1004.80 1004.40 1004.05 1004.03 1004.12 1004.09 1004.00 1004.27 1004.62 1003.59 1002.86 1003.25 1003.77 1004.27 1004.68 1004.96 1005.31 1005.54 1005.82 1006.05 1006.56 1006.82 1006.61 1006.70 1006.69 1007.18 1007.38 1007.24 1007.59 1008.09 1008.61 1008.95 1009.39 1009.67 1010.01 1010.32 1010.81 1011.40
1006.94 1006.16 1005.70 1005.14 1004.24 1003.58 1003.34 1003.16 1003.16 1003.16 1003.36 1003.23 1003.24 1003.00 1002.46 1002.56 1002.60 1002.81 1003.42 1003.72 1003.93 1004.35 1004.75 1004.89 1005.16 1005.60 1005.95 1006.25 1006.22 1006.20 1006.61 1006.96 1007.25 1007.42 1007.54 1008.14 1008.51 1008.79 1009.05 1009.32 1009.61 1010.03 1010.63
1005.88 1005.27 1004.67 1003.94 1003.35 1002.67 1002.37 1002.15 1002.32 1002.41 1002.49 1002.44 1002.62 1002.59 1002.44 1002.07 1002.26 1002.52 1002.99 1003.37 1003.58 1003.88 1004.43 1004.42 1004.50 1004.72 1005.26 1005.75 1006.02 1006.10 1006.21 1006.55 1007.00 1007.26 1007.67 1007.79 1008.13 1008.38 1008.56 1008.74 1008.83 1009.20 1009.80
1004.94 1004.47 1003.70 1003.18 1002.50 1001.87 1001.68 1001.48 1001.45 1001.77 1001.72 1001.64 1001.80 1001.91 1001.64 1001.51 1001.83 1002.30 1002.72 1002.90 1003.07 1003.41 1004.10 1004.22 1004.01 1004.02 1004.56 1005.06 1005.59 1005.80 1005.68 1005.95 1006.09 1006.82 1006.76 1007.35 1007.93 1008.26 1008.41 1008.28 1008.42 1008.63 1009.24
Thickness
5717 5721 5725 5723 5719 5717 5716 5715 5716 5715 5714 5713 5714 5716 5717 5718 5718 5718 5717 5710 5709 5707 5708 5708 5708 5708 5707 5706 5706 5704 5704 5703 5701 5701 5699 5697 5696 5695 5694 5693 5693 5692 5691
5702 5703 5705 5709 5712 5711 5708 5707 5707 5707 5707 5708 5707 5707 5708 5710 5711 5710 5709 5706 5702 5700 5701 5702 5702 5702 5702 5701 5701 5699 5699 5697 5697 5695 5694 5693 5693 5693 5691 5691 5690 5690 5690
5691 5690 5690 5689 5690 5693 5698 5700 5698 5696 5698 5698 5698 5699 5698 5699 5702 5701 5700 5699 5697 5694 5694 5694 5695 5696 5696 5696 5694 5694 5694 5692 5691 5690 5689 5688 5687 5687 5687 5686 5686 5687 5689
5685 5685 5682 5678 5676 5674 5673 5675 5680 5685 5683 5683 5685 5687 5689 5690 5690 5692 5692 5692 5691 5691 5688 5687 5687 5688 5689 5690 5689 5688 5687 5687 5685 5684 5684 5683 5682 5681 5683 5683 5682 5683 5683
5673 5671 5672 5672 5670 5664 5661 5660 5663 5665 5667 5673 5673 5675 5679 5680 5681 5681 5683 5683 5681 5682 5683 5680 5680 5680 5681 5682 5683 5682 5681 5680 5680 5679 5678 5678 5678 5677 5677 5678 5678 5678 5679
5658 5656 5655 5657 5656 5656 5651 5647 5646 5648 5653 5655 5658 5664 5668 5670 5669 5671 5673 5675 5675 5673 5672 5674 5671 5672 5672 5675 5676 5676 5676 5675 5674 5674 5673 5672 5673 5673 5673 5673 5673 5674 5674
5649 5646 5644 5642 5640 5639 5639 5637 5634 5631 5632 5640 5640 5643 5652 5658 5661 5661 5662 5665 5668 5667 5665 5665 5667 5665 5667 5667 5668 5670 5670 5670 5669 5668 5668 5668 5668 5668 5668 5668 5668 5669 5670
5629 5627 5627 5625 5625 5626 5626 5624 5621 5617 5616 5615 5614 5622 5627 5639 5650 5656 5654 5654 5657 5658 5658 5659 5660 5661 5662 5662 5662 5662 5663 5664 5664 5663 5663 5662 5663 5663 5663 5663 5663 5664 5665
5612 5609 5608 5606 5605 5603 5603 5604 5604 5603 5602 5599 5592 5591 5601 5615 5631 5643 5643 5645 5645 5648 5650 5650 5652 5654 5654 5657 5657 5656 5656 5657 5658 5659 5657 5657 5658 5659 5659 5659 5659 5659 5659
5599 5596 5592 5590 5587 5584 5584 5584 5583 5584 5584 5586 5580 5576 5579 5582 5587 5603 5622 5631 5638 5634 5639 5641 5643 5644 5647 5650 5651 5650 5649 5649 5650 5652 5653 5653 5653 5653 5654 5654 5654 5654 5654
5584 5580 5576 5573 5569 5566 5563 5559 5558 5558 5561 5563 5565 5564 5561 5565 5563 5564 5573 5597 5615 5622 5623 5629 5632 5634 5638 5642 5644 5644 5643 5641 5642 5642 5644 5646 5647 5649 5649 5650 5650 5650 5650
5567 5562 5555 5551 5549 5546 5541 5539 5538 5537 5540 5544 5547 5550 5550 5550 5551 5549 5552 5572 5580 5607 5609 5618 5620 5625 5629 5633 5635 5637 5636 5633 5634 5635 5636 5638 5640 5642 5643 5644 5645 5645 5645
5546 5541 5534 5532 5529 5526 5523 5519 5514 5516 5516 5518 5524 5529 5535 5541 5542 5542 5544 5551 5555 5577 5588 5604 5611 5615 5618 5623 5626 5627 5628 5627 5626 5627 5628 5630 5633 5635 5636 5637 5638 5639 5640
5526 5521 5515 5512 5508 5503 5497 5494 5493 5494 5495 5496 5500 5503 5511 5521 5526 5529 5532 5535 5541 5551 5561 5582 5602 5606 5609 5613 5616 5618 5619 5620 5621 5620 5621 5622 5625 5627 5629 5630 5631 5632 5634
5506 5502 5497 5492 5486 5482 5476 5473 5477 5481 5478 5482 5485 5488 5489 5497 5503 5512 5516 5521 5529 5538 5553 5575 5585 5598 5601 5602 5605 5608 5611 5612 5614 5614 5614 5615 5617 5619 5621 5623 5624 5625 5627
5485 5481 5477 5471 5465 5463 5461 5459 5464 5468 5465 5467 5470 5474 5477 5481 5485 5492 5498 5507 5511 5521 5537 5558 5568 5583 5589 5592 5597 5598 5603 5605 5606 5608 5609 5609 5610 5612 5614 5615 5617 5619 5620
5465 5461 5457 5453 5451 5450 5448 5446 5452 5453 5453 5454 5455 5457 5460 5463 5465 5472 5478 5489 5500 5506 5518 5537 5549 5560 5572 5578 5585 5590 5593 5595 5598 5599 5601 5602 5603 5604 5606 5608 5610 5612 5613
5444 5439 5438 5438 5438 5437 5435 5434 5436 5439 5438 5440 5440 5439 5444 5446 5446 5453 5459 5468 5483 5491 5499 5510 5526 5541 5550 5558 5572 5577 5580 5588 5592 5591 5594 5595 5596 5597 5599 5601 5603 5605 5606
5422 5419 5417 5419 5420 5420 5419 5419 5419 5420 5423 5424 5426 5426 5429 5430 5433 5439 5445 5451 5464 5476 5485 5490 5507 5518 5526 5539 5559 5565 5569 5575 5582 5585 5587 5588 5589 5590 5592 5594 5596 5598 5600
5402 5401 5400 5400 5400 5401 5400 5401 5400 5398 5404 5409 5409 5412 5415 5419 5423 5429 5432 5440 5448 5459 5467 5472 5487 5496 5507 5520 5539 5551 5557 5562 5569 5576 5579 5581 5582 5583 5585 5587 5589 5591 5593
5385 5382 5382 5381 5380 5381 5383 5383 5386 5385 5383 5390 5397 5402 5407 5409 5416 5419 5422 5429 5435 5444 5454 5461 5468 5476 5493 5504 5524 5537 5545 5550 5557 5565 5570 5573 5577 5577 5579 5581 5584 5586 5588
5368 5364 5362 5363 5363 5364 5367 5369 5371 5374 5375 5380 5382 5384 5399 5404 5406 5409 5412 5415 5421 5428 5439 5450 5457 5463 5480 5492 5505 5519 5527 5533 5544 5558 5560 5566 5570 5573 5576 5578 5582 5582 5585
5352 5349 5346 5346 5351 5355 5358 5361 5363 5363 5367 5371 5370 5371 5389 5401 5402 5405 5408 5413 5418 5423 5430 5438 5447 5455 5464 5481 5494 5508 5515 5523 5540 5547 5551 5557 5564 5569 5573 5575 5579 5581 5581
5343 5342 5339 5341 5347 5351 5352 5354 5355 5357 5360 5366 5372 5380 5390 5392 5399 5404 5406 5412 5418 5422 5427 5437 5445 5451 5458 5465 5478 5494 5504 5512 5520 5529 5544 5548 5556 5563 5567 5570 5574 5576 5576
5342 5339 5338 5340 5339 5343 5344 5347 5348 5351 5355 5361 5365 5371 5377 5386 5392 5398 5402 5405 5411 5417 5420 5430 5439 5446 5449 5454 5464 5477 5490 5500 5510 5522 5533 5541 5546 5552 5558 5565 5569 5571 5572
5339 5334 5334 5335 5337 5340 5341 5344 5346 5347 5352 5358 5361 5366 5374 5381 5385 5390 5395 5401 5407 5412 5412 5419 5430 5439 5444 5450 5456 5467 5484 5494 5507 5513 5526 5532 5534 5539 5548 5557 5560 5563 5564